Погода Тегюльтя-Терде

Погода Тегюльтя-Терде : погода сейчас, прогноз погоды и архив. Всё, что Вы хотите узнать о погоде Тегюльтя-Терде!

Поиск расширенной информации на нашем сайте:

Другие новости

Новости СМИ2

Главная страница сайта

Новости сайта

03.07.2017

Напоминаем, что на нашем специализированном сайте Метеоцентр.Азия вы можете получить высокодетализированные автоматические прогнозы погоды по пунктам России, СНГ и мира в авиационном формате (включающие направление и скорость ветра, видимость, явления погоды, количество и форму облачности, нижнюю и верхнюю границу облачности).

Рекомендуем: предлагаются помещения сдам офис Бизнес центр Варшавка Sky у метро Чертановская

Погода Тегюльтя-Терде - сегодня

Время (UTC), дата Ветер
(°,м/с) 
Видим.   Явления Облачность Т
(°С)
Тd
(°С)
f(%) Тe
(°С)
Pmin
(гПа)
dP
(гПа)
Po
(мм)
O2
(г/м3)
Тmin Tmax R s Состояние
почвы
21 20.02.18 тихо ()   10 км  слаб. снег  10/0 верхняя 
[Cs]
-44.3 -47 74 -44  1021.5  -0.7  747  361           
03 21.02.18 тихо ()   20000 м    ясно 
-34.9 -38.4 70 -35  1020.3  -1.2  747  347           
06 21.02.18 тихо ()   20000 м    ясно 
-25.3 -30.9 59 -25  1018.1  -1.2  746  333           
09 21.02.18 тихо ()   20000 м    ясно 
-28.7 -32.6 69 -29  1020.1  1.6  747  338           
12 21.02.18 тихо ()   20000 м    ясно 
-38 -40.9 74 -38  1022  0.8  748  352    -25       
15 21.02.18 тихо ()   20000 м    ясно 
-40.1 -43.8 68 -40  1022.8  0.7  748  355           
18 21.02.18 тихо ()   20000 м    ясно 
-43.5 -46.9 69 -44  1024  0.8  749  361           
00 22.02.18 тихо ()   20000 м    ясно 
-45 -48.4 68 -45  1026.3  750  364  -45      39  равномерный
сухой снег
100% 
03 22.02.18 тихо ()   20000 м    ясно 
-33.8 -38.3 64 -34  1024.8  -0.2  750  347           
06 22.02.18 тихо ()   20000 м    ясно 
-35.1 -40.2 59 -35  1024.3  -0.7  750  349           
09 22.02.18 тихо ()   20000 м    ясно 
-28.7 -32.6 69 -29  1024.7  1.1  750  340           
12 22.02.18 тихо ()   20000 м    ясно 
-36.6 -39.4 75 -37  1027.2  1.6  752  352    -28.7       
15 22.02.18 тихо ()   20000 м    ясно 
-40.2 -43.4 71 -40  1028.7  752  358           
18 22.02.18 тихо ()   20000 м    ясно 
-41.8 -45 71 -42  1029.9  1.2  753  361           
21 22.02.18 тихо ()   20000 м    ясно 
-43.2 -46.2 72 -43  1030.9  0.7  754  363           
00 23.02.18 тихо ()   20000 м    ясно 
-43.7 -46.9 70 -44  1032.5  1.6  755  364  -43.9      39  равномерный
сухой снег
100% 
03 23.02.18 тихо ()   20000 м    3/0 верхняя 
[Ci fib]
-32.8 -37.2 65 -33  1031.8  0.4  755  348           
06 23.02.18 тихо ()   20000 м    ясно 
-22.9 -28.6 60 -23  1031  0.2  755  334           
09 23.02.18 тихо ()   20000 м    4/0 верхняя 
[Ci fib]
-27.1 -30.9 70 -27  1032.3  0.8  756  340           
12 23.02.18 тихо ()   20000 м    3/0 верхняя 
[Ci fib]
-35 -38 74 -35  1034.2  1.1  757  352    -22.9       
15 23.02.18 тихо ()   20000 м    10/0 верхняя 
[Cs]
-36.9 -39.8 74 -37  1035.4  758  355           
18 23.02.18 тихо ()   20000 м    10/0 верхняя 
[Cs]
-37.4 -40.1 76 -37  1036.1  0.7  758  356           
21 23.02.18 тихо ()   20000 м    10/0 верхняя 
[Cs]
-39 -41.8 75 -39  1037.2  0.9  759  359           
00 24.02.18 тихо ()   20000 м    10/0 верхняя 
[Cs]
-39.5 -42.3 75 -40  1037.6  0.4  759  360  -39.5      39  равномерный
сухой снег
100% 
03 24.02.18 тихо ()   20000 м    10/0 верхняя 
[Ci fib]
-28.8 -33.4 64 -29  1036.1  -0.5  759  344           
Время (UTC), дата Ветер
(°,м/с) 
Видим.   Явления Облачность Т
(°С)
Тd
(°С)
f(%) Тe
(°С)
Pmin
(гПа)
dP
(гПа)
Po
(мм)
O2
(г/м3)
Тmin Tmax R s Состояние
почвы

Для получения пояснительной информации подведите курсор к названию столбца.

ПОГОДА Тегюльтя-Терде - архив

Всё, что Вы хотите узнать о погоде Тегюльтя-Терде - удобно и подробно!

Выберите нужную дату (начиная с 1 января 2015* года) и нажмите кнопку "Найти".
Будут отображены архивные сводки погоды по пункту Тегюльтя-Терде, начиная с указанной даты.


Отображать данные в формате CSV (для использования в таблицах Excel)


Внимание! Наш архив погоды предназначен исключительно для личного некоммерческого использования в познавательных целях. Если Вам необходимы официальные справки о состоянии погоды (для производственных, юридических, коммерческих и т.п. целей), обращайтесь в органы Росгидромета.

*Примечание: данная дата относится к архиву по метеостанциям СССР (Россия, СНГ, Балтия).
Архив по метеостанциям Зарубежной Европы и Азии (кроме Китая) хранится 10 дней, по другим регионам земного шара (Китай, Африка, Америка, Австралия, Океания) - 1 день.

Тегюльтя-Терде - район местоположения метеостанции


Название, широта, долгота, высота метеостанции:
Тегюльтя-Терде 60.2°ш. 130.2°д. 171 м над ур. моря [Российская Федерация]

Дополнительная информация

В oтличие oт бoльшинства пoгoдных сайтoв мы публикуем пoдрoбную метеoинфoрмацию в детальнoм прoфессиoнальнoм фoрмате.

Характеристики температуры и влажнoсти вoздуха измеряются на высoте 2 м в тени вдали oт зданий и деревьев.
Скoрoсть ветра измеряется на высoте 10 м (на урoвне рoста челoвека скoрoсть ветра ниже в 1.5-2 раза). Если метеoстанция нахoдится в гoрoде или в лесу, тo скoрoсть ветра занижена на 2-4 м/с пo сравнению с oткрытым местoм. Скoрoсть ветра над акватoриями крупных рек и oзёр, а также на вершинах хoлмoв на 2-5 м/с выше, чем в oбычных услoвиях.
Атмoсфернoе давление в разных тoчках местнoсти мoжет значительнo oтличаться oт давления на метеoстанции, в зависимoсти oт услoвий рельефа (при пoдъёме на 10 м давление пoнижается примернo на 1 мм рт.ст.).